星链-2699 (STARLINK-2699 )

导读 | 豆包AI

STARLINK-2699是美国太空探索技术公司(SpaceX)星链星座中的一颗卫星,于2021年5月9日发射入轨,属于Starlink Group 2-1批次。星链项目旨在构建全球卫星互联网星座,该卫星承担着为全球尤其是偏远地区提供低延迟、高速宽带互联网接入服务的任务,是星链大规模组网中的组成单元。

Basic Information
目录编号:
48433
目录名称:
STARLINK-2699
国际标识:
2021-040F
轨道中心:
EARTH
卫星名称:
星链-2699
卫星全名:
星链-2699 (STARLINK-2699 )
卫星状态:
在轨 (已飞行1817 天)
发射日期:
2021-05-09 UTC
国别 :
美国 (US)
星等 :
--
Orbit Information
数据来源 国际轨道数据 AOE轨道数据
星历时间 2026-04-30T12:00:01+0800
12小时前
查看轨道信息
2026-04-27T07:00:00+0800
3天前
查看轨道信息
半长轴 6848.864km 6853.345km
偏心率 0.0001111 0.0001394
轨道倾角 53.159° 53.161°
近地点辐角 104.481° 76.090°
升交点赤经 273.308° 288.234°
平近点角 151.609° 126.310°
近地点 469.966km 474.252km
远地点 471.488km 476.164km
周期 94.013分钟 94.105分钟
每日圈数 15.317044 15.302024
Detailed Information
固有亮度:
5
最大亮度:
2.5
卫星平台:
Starlink V1.0
覆盖范围:
全球
运营商:
太空探索技术公司
运营商所在国:
美国
制造商(研发单位):
太空探索技术公司
制造商所在国:
美国
使用方式:
暂无
Satellite Introduction
星链(Starlink)计划是由太空探索技术公司(SpaceX)提出的一个巨型低轨卫星互联网星座项目,计划在2019年至2024年间在太空搭建由约1.2万颗卫星组成的“星链”网络,其中1584颗将部署在地球上空550千米处的近地轨道,并从2020年开始工作。该卫星仍在工作。
2D Orbit Map
3D Orbit Map
Orbit Altitude Analysis Chart
Orbit Inclination Analysis Chart
Orbit Comprehensive Analysis Chart
View Comprehensive Chart